Time,TemperatureF,DewpointF,PressureIn,WindDirection,WindDirectionDegrees,WindSpeedMPH,WindSpeedGustMPH,Humidity,HourlyPrecipIn,Conditions,Clouds,dailyrainin,SoftwareType,DateUTC
2016-07-28 00:04:00,80.6,80.3,29.99,East,97,1.9,3.1,99,0.00,,,0.00,Arduino-ESP8266,2016-07-28 04:04:00,
2016-07-28 00:10:00,80.8,80.4,29.99,SE,138,2.2,4.0,99,0.00,,,0.00,Arduino-ESP8266,2016-07-28 04:10:00,
2016-07-28 00:15:00,80.1,79.7,29.99,ENE,67,5.8,9.3,99,0.00,,,0.00,Arduino-ESP8266,2016-07-28 04:15:00,
2016-07-28 00:20:00,80.1,79.8,29.98,SE,131,1.2,1.9,99,0.00,,,0.00,Arduino-ESP8266,2016-07-28 04:20:00,
2016-07-28 00:26:00,80.1,79.7,29.98,ESE,123,1.5,2.8,99,0.00,,,0.00,Arduino-ESP8266,2016-07-28 04:26:00,
2016-07-28 00:32:00,80.2,79.8,29.98,East,101,2.5,4.7,99,0.00,,,0.00,Arduino-ESP8266,2016-07-28 04:32:00,
2016-07-28 00:38:00,80.2,79.9,29.98,ESE,105,1.5,5.6,99,0.00,,,0.00,Arduino-ESP8266,2016-07-28 04:38:00,
2016-07-28 00:43:00,80.3,79.9,29.98,ESE,108,1.6,2.5,99,0.00,,,0.00,Arduino-ESP8266,2016-07-28 04:43:00,
2016-07-28 00:48:00,80.4,80.0,29.98,East,90,1.1,2.5,99,0.00,,,0.00,Arduino-ESP8266,2016-07-28 04:48:00,
2016-07-28 00:54:00,80.3,80.0,29.98,East,90,1.3,2.8,99,0.00,,,0.00,Arduino-ESP8266,2016-07-28 04:54:00,
2016-07-28 00:59:00,80.4,80.1,29.97,East,90,0.3,1.9,99,0.00,,,0.00,Arduino-ESP8266,2016-07-28 04:59:00,
2016-07-28 01:04:00,80.4,80.0,29.97,East,90,1.3,4.7,99,0.00,,,0.00,Arduino-ESP8266,2016-07-28 05:04:00,
2016-07-28 01:12:00,80.2,79.8,29.97,East,90,0.7,1.9,99,0.00,,,0.00,Arduino-ESP8266,2016-07-28 05:12:00,
2016-07-28 01:17:00,79.9,79.5,29.97,ENE,67,3.0,7.5,99,0.00,,,0.00,Arduino-ESP8266,2016-07-28 05:17:00,
2016-07-28 01:23:00,79.7,79.3,29.97,ENE,78,3.3,6.8,99,0.00,,,0.00,Arduino-ESP8266,2016-07-28 05:23:00,
2016-07-28 01:28:00,79.9,79.5,29.97,SE,135,0.4,0.9,99,0.00,,,0.00,Arduino-ESP8266,2016-07-28 05:28:00,
2016-07-28 01:33:00,80.0,79.6,29.96,NE,45,2.3,3.7,99,0.00,,,0.00,Arduino-ESP8266,2016-07-28 05:33:00,
2016-07-28 01:39:00,79.7,79.3,29.96,ENE,63,3.7,5.9,99,0.00,,,0.00,Arduino-ESP8266,2016-07-28 05:39:00,
2016-07-28 01:44:00,79.6,79.2,29.96,East,93,2.0,6.2,99,0.00,,,0.00,Arduino-ESP8266,2016-07-28 05:44:00,
2016-07-28 01:49:00,79.6,79.2,29.96,ENE,75,3.2,4.7,99,0.00,,,0.00,Arduino-ESP8266,2016-07-28 05:49:00,
2016-07-28 01:55:00,79.3,79.0,29.96,ENE,60,4.1,8.1,99,0.00,,,0.00,Arduino-ESP8266,2016-07-28 05:55:00,
2016-07-28 02:00:00,79.4,79.0,29.96,East,101,3.4,5.9,99,0.00,,,0.00,Arduino-ESP8266,2016-07-28 06:00:00,
2016-07-28 02:06:00,79.5,79.2,29.96,ENE,63,3.1,5.9,99,0.00,,,0.00,Arduino-ESP8266,2016-07-28 06:06:00,
2016-07-28 02:11:00,79.2,78.8,29.96,ENE,67,3.2,5.6,99,0.00,,,0.00,Arduino-ESP8266,2016-07-28 06:11:00,
2016-07-28 02:16:00,79.3,78.9,29.96,NE,45,2.4,4.3,99,0.00,,,0.00,Arduino-ESP8266,2016-07-28 06:16:00,
2016-07-28 02:22:00,79.5,79.1,29.96,NE,45,2.6,5.0,99,0.00,,,0.00,Arduino-ESP8266,2016-07-28 06:22:00,
2016-07-28 02:27:00,79.4,79.0,29.96,NE,56,4.7,8.4,99,0.00,,,0.00,Arduino-ESP8266,2016-07-28 06:27:00,
2016-07-28 02:32:00,79.1,78.8,29.96,ENE,67,3.2,6.5,99,0.00,,,0.00,Arduino-ESP8266,2016-07-28 06:32:00,
2016-07-28 02:38:00,78.8,78.5,29.96,NE,56,6.2,8.4,99,0.00,,,0.00,Arduino-ESP8266,2016-07-28 06:38:00,
2016-07-28 02:43:00,78.9,78.5,29.96,East,90,2.2,5.3,99,0.00,,,0.00,Arduino-ESP8266,2016-07-28 06:43:00,
2016-07-28 02:50:00,79.1,78.7,29.95,East,82,3.5,6.5,99,0.00,,,0.00,Arduino-ESP8266,2016-07-28 06:50:00,
2016-07-28 02:55:00,79.2,78.8,29.96,East,90,1.8,4.3,99,0.00,,,0.00,Arduino-ESP8266,2016-07-28 06:55:00,
2016-07-28 03:00:00,79.0,78.7,29.96,East,101,1.9,2.8,99,0.00,,,0.00,Arduino-ESP8266,2016-07-28 07:00:00,
2016-07-28 03:06:00,79.1,78.8,29.96,East,90,0.8,1.5,99,0.00,,,0.00,Arduino-ESP8266,2016-07-28 07:06:00,
2016-07-28 03:12:00,79.5,79.1,29.96,East,90,0.5,1.5,99,0.00,,,0.00,Arduino-ESP8266,2016-07-28 07:12:00,
2016-07-28 03:17:00,79.6,79.2,29.96,East,86,1.7,3.4,99,0.00,,,0.00,Arduino-ESP8266,2016-07-28 07:17:00,
2016-07-28 03:23:00,79.3,78.9,29.96,East,93,3.1,4.7,99,0.00,,,0.00,Arduino-ESP8266,2016-07-28 07:23:00,
2016-07-28 03:28:00,79.6,79.2,29.96,NE,45,0.4,0.9,99,0.00,,,0.00,Arduino-ESP8266,2016-07-28 07:28:00,
2016-07-28 03:33:00,79.7,79.3,29.96,ENE,71,2.1,2.8,99,0.00,,,0.00,Arduino-ESP8266,2016-07-28 07:33:00,
2016-07-28 03:39:00,79.5,79.2,29.96,ESE,116,1.4,3.1,99,0.00,,,0.00,Arduino-ESP8266,2016-07-28 07:39:00,
2016-07-28 03:44:00,79.3,78.9,29.96,NE,45,3.0,4.7,99,0.00,,,0.00,Arduino-ESP8266,2016-07-28 07:44:00,
2016-07-28 03:51:00,78.9,78.5,29.96,East,82,4.1,7.2,99,0.00,,,0.00,Arduino-ESP8266,2016-07-28 07:51:00,
2016-07-28 03:56:00,78.8,78.5,29.96,East,90,4.3,7.2,99,0.00,,,0.00,Arduino-ESP8266,2016-07-28 07:56:00,
2016-07-28 04:02:00,78.7,78.3,29.96,East,90,2.4,3.4,99,0.00,,,0.00,Arduino-ESP8266,2016-07-28 08:02:00,
2016-07-28 04:08:00,78.8,78.5,29.96,ESE,116,1.9,7.2,99,0.00,,,0.00,Arduino-ESP8266,2016-07-28 08:08:00,
2016-07-28 04:13:00,79.0,78.6,29.96,ENE,63,4.1,7.8,99,0.00,,,0.00,Arduino-ESP8266,2016-07-28 08:13:00,
2016-07-28 04:18:00,78.7,78.4,29.96,NE,45,2.8,6.8,99,0.00,,,0.00,Arduino-ESP8266,2016-07-28 08:18:00,
2016-07-28 04:24:00,78.6,78.2,29.96,East,86,4.2,11.5,99,0.00,,,0.00,Arduino-ESP8266,2016-07-28 08:24:00,
2016-07-28 04:31:00,78.6,78.3,29.96,East,86,3.3,4.3,99,0.00,,,0.00,Arduino-ESP8266,2016-07-28 08:31:00,
2016-07-28 04:36:00,79.0,78.6,29.96,NE,45,0.8,1.5,99,0.00,,,0.00,Arduino-ESP8266,2016-07-28 08:36:00,
2016-07-28 04:42:00,79.3,79.0,29.96,ESE,123,1.2,2.8,99,0.00,,,0.00,Arduino-ESP8266,2016-07-28 08:42:00,
2016-07-28 04:47:00,79.5,79.1,29.96,East,101,1.5,3.1,99,0.00,,,0.00,Arduino-ESP8266,2016-07-28 08:47:00,
2016-07-28 04:53:00,79.2,78.8,29.96,East,97,3.9,5.9,99,0.00,,,0.00,Arduino-ESP8266,2016-07-28 08:53:00,
2016-07-28 04:58:00,79.3,78.9,29.96,East,101,1.4,1.9,99,0.00,,,0.00,Arduino-ESP8266,2016-07-28 08:58:00,
2016-07-28 05:03:00,79.2,78.9,29.96,SE,142,2.5,5.9,99,0.00,,,0.00,Arduino-ESP8266,2016-07-28 09:03:00,
2016-07-28 05:09:00,79.0,78.7,29.96,ESE,112,2.6,7.2,99,0.00,,,0.00,Arduino-ESP8266,2016-07-28 09:09:00,
2016-07-28 05:14:00,79.0,78.6,29.96,East,90,1.7,4.7,99,0.00,,,0.00,Arduino-ESP8266,2016-07-28 09:14:00,
2016-07-28 05:19:00,79.1,78.8,29.96,ESE,105,2.0,3.1,99,0.00,,,0.00,Arduino-ESP8266,2016-07-28 09:19:00,
2016-07-28 05:27:00,79.0,78.6,29.97,SE,146,3.1,4.3,99,0.00,,,0.00,Arduino-ESP8266,2016-07-28 09:27:00,
2016-07-28 05:32:00,79.0,78.7,29.97,East,90,1.7,2.5,99,0.00,,,0.00,Arduino-ESP8266,2016-07-28 09:32:00,
2016-07-28 05:38:00,79.0,78.7,29.97,East,90,1.5,2.8,99,0.00,,,0.00,Arduino-ESP8266,2016-07-28 09:38:00,
2016-07-28 05:43:00,78.9,78.5,29.97,ESE,108,1.6,3.7,99,0.00,,,0.00,Arduino-ESP8266,2016-07-28 09:43:00,
2016-07-28 05:48:00,78.9,78.5,29.97,East,90,2.1,3.7,99,0.00,,,0.00,Arduino-ESP8266,2016-07-28 09:48:00,
2016-07-28 05:54:00,79.1,78.7,29.97,ESE,112,0.8,1.9,99,0.00,,,0.00,Arduino-ESP8266,2016-07-28 09:54:00,
2016-07-28 05:59:00,79.1,78.8,29.97,ESE,123,1.5,4.3,99,0.00,,,0.00,Arduino-ESP8266,2016-07-28 09:59:00,
2016-07-28 06:04:00,79.3,79.0,29.97,East,90,0.8,3.7,99,0.00,,,0.00,Arduino-ESP8266,2016-07-28 10:04:00,
2016-07-28 06:10:00,79.2,78.8,29.97,East,90,2.5,4.7,99,0.00,,,0.00,Arduino-ESP8266,2016-07-28 10:10:00,
2016-07-28 06:15:00,79.2,78.9,29.97,ESE,105,2.2,5.9,99,0.00,,,0.00,Arduino-ESP8266,2016-07-28 10:15:00,
2016-07-28 06:21:00,79.7,79.3,29.97,East,90,0.8,2.2,99,0.00,,,0.00,Arduino-ESP8266,2016-07-28 10:21:00,
2016-07-28 06:26:00,80.3,79.9,29.97,East,90,1.0,5.3,99,0.00,,,0.00,Arduino-ESP8266,2016-07-28 10:26:00,
2016-07-28 06:35:00,81.1,80.7,29.98,East,90,1.8,3.7,99,0.00,,,0.00,Arduino-ESP8266,2016-07-28 10:35:00,
2016-07-28 06:40:00,81.4,81.0,29.98,NE,45,1.9,2.5,99,0.00,,,0.00,Arduino-ESP8266,2016-07-28 10:40:00,
2016-07-28 06:45:00,81.9,81.6,29.98,East,90,1.8,3.4,99,0.00,,,0.00,Arduino-ESP8266,2016-07-28 10:45:00,
2016-07-28 06:51:00,82.3,81.9,29.98,East,82,3.2,5.9,99,0.00,,,0.00,Arduino-ESP8266,2016-07-28 10:51:00,
2016-07-28 06:56:00,82.4,82.0,29.98,East,90,2.6,4.0,99,0.00,,,0.00,Arduino-ESP8266,2016-07-28 10:56:00,
2016-07-28 07:01:00,82.9,82.5,29.98,East,90,1.7,3.7,99,0.00,,,0.00,Arduino-ESP8266,2016-07-28 11:01:00,
2016-07-28 07:08:00,83.8,83.4,29.98,East,86,2.7,6.8,99,0.00,,,0.00,Arduino-ESP8266,2016-07-28 11:08:00,
2016-07-28 07:13:00,84.1,83.8,29.98,ESE,120,1.3,1.9,99,0.00,,,0.00,Arduino-ESP8266,2016-07-28 11:13:00,
2016-07-28 07:18:00,84.0,83.7,29.98,ENE,75,3.9,5.3,99,0.00,,,0.00,Arduino-ESP8266,2016-07-28 11:18:00,
2016-07-28 07:24:00,84.4,84.0,29.98,ENE,75,5.7,8.1,99,0.00,,,0.00,Arduino-ESP8266,2016-07-28 11:24:00,
2016-07-28 07:29:00,84.7,84.3,29.99,East,93,3.4,5.6,99,0.00,,,0.00,Arduino-ESP8266,2016-07-28 11:29:00,
2016-07-28 07:35:00,84.9,84.6,29.99,ENE,78,3.6,7.5,99,0.00,,,0.00,Arduino-ESP8266,2016-07-28 11:35:00,
2016-07-28 07:36:00,85.2,84.8,29.99,East,90,2.0,5.9,99,0.00,,,0.00,Arduino-ESP8266,2016-07-28 11:36:00,
2016-07-28 07:41:00,85.6,85.2,29.99,East,82,3.8,6.5,99,0.00,,,0.00,Arduino-ESP8266,2016-07-28 11:41:00,
2016-07-28 07:46:00,86.1,85.7,29.99,East,82,3.3,8.7,99,0.00,,,0.00,Arduino-ESP8266,2016-07-28 11:46:00,
2016-07-28 07:52:00,86.3,86.0,29.99,ESE,112,2.6,5.0,99,0.00,,,0.00,Arduino-ESP8266,2016-07-28 11:52:00,
2016-07-28 07:57:00,87.2,86.8,29.99,East,90,2.8,3.7,99,0.00,,,0.00,Arduino-ESP8266,2016-07-28 11:57:00,
2016-07-28 08:02:00,87.6,87.2,29.99,ESE,116,1.8,2.8,99,0.00,,,0.00,Arduino-ESP8266,2016-07-28 12:02:00,
2016-07-28 08:08:00,88.2,87.8,29.99,East,90,2.5,6.8,99,0.00,,,0.00,Arduino-ESP8266,2016-07-28 12:08:00,
2016-07-28 08:13:00,88.1,87.7,30.00,East,90,3.3,4.3,99,0.00,,,0.00,Arduino-ESP8266,2016-07-28 12:13:00,
2016-07-28 08:19:00,88.7,88.3,30.00,East,86,3.9,7.2,99,0.00,,,0.00,Arduino-ESP8266,2016-07-28 12:19:00,
2016-07-28 08:24:00,87.1,86.7,30.00,ENE,78,2.2,3.4,99,0.00,,,0.00,Arduino-ESP8266,2016-07-28 12:24:00,
2016-07-28 08:29:00,86.2,85.8,30.00,East,90,2.2,5.9,99,0.00,,,0.00,Arduino-ESP8266,2016-07-28 12:29:00,
2016-07-28 08:35:00,85.1,84.7,30.00,East,90,1.6,4.0,99,0.00,,,0.00,Arduino-ESP8266,2016-07-28 12:35:00,
2016-07-28 08:40:00,84.3,84.0,30.00,East,82,3.1,9.9,99,0.00,,,0.00,Arduino-ESP8266,2016-07-28 12:40:00,
2016-07-28 08:46:00,83.9,83.6,30.00,East,97,2.9,4.3,99,0.00,,,0.00,Arduino-ESP8266,2016-07-28 12:46:00,
2016-07-28 08:51:00,85.8,85.4,30.00,NE,45,2.9,4.0,99,0.00,,,0.00,Arduino-ESP8266,2016-07-28 12:51:00,
2016-07-28 08:57:00,86.3,85.9,30.00,East,93,2.4,4.0,99,0.00,,,0.00,Arduino-ESP8266,2016-07-28 12:57:00,
2016-07-28 09:03:00,85.2,84.9,30.00,ENE,71,6.5,9.6,99,0.00,,,0.00,Arduino-ESP8266,2016-07-28 13:03:00,
2016-07-28 09:08:00,85.6,85.2,30.00,East,97,4.8,6.2,99,0.00,,,0.00,Arduino-ESP8266,2016-07-28 13:08:00,
2016-07-28 09:13:00,86.7,86.3,30.00,ESE,108,5.6,10.9,99,0.00,,,0.00,Arduino-ESP8266,2016-07-28 13:13:00,
2016-07-28 09:19:00,87.6,87.2,30.00,ESE,108,3.3,5.3,99,0.00,,,0.00,Arduino-ESP8266,2016-07-28 13:19:00,
2016-07-28 09:24:00,86.9,86.5,30.00,NE,56,6.9,11.5,99,0.00,,,0.00,Arduino-ESP8266,2016-07-28 13:24:00,
2016-07-28 09:29:00,86.9,86.5,30.01,East,101,5.4,8.7,99,0.00,,,0.00,Arduino-ESP8266,2016-07-28 13:29:00,
2016-07-28 09:35:00,87.4,87.1,30.00,East,86,4.5,6.8,99,0.00,,,0.00,Arduino-ESP8266,2016-07-28 13:35:00,
2016-07-28 09:40:00,84.8,84.4,30.01,East,97,4.6,7.5,99,0.00,,,0.00,Arduino-ESP8266,2016-07-28 13:40:00,
2016-07-28 09:45:00,83.2,82.9,30.01,South,172,6.1,12.4,99,0.00,,,0.00,Arduino-ESP8266,2016-07-28 13:45:00,
2016-07-28 09:51:00,81.7,81.3,30.01,SSE,157,5.8,9.6,99,0.00,,,0.00,Arduino-ESP8266,2016-07-28 13:51:00,
2016-07-28 09:56:00,81.4,81.0,30.01,SSE,150,3.2,4.7,99,0.02,,,0.02,Arduino-ESP8266,2016-07-28 13:56:00,
2016-07-28 10:01:00,82.6,82.3,30.01,SE,138,3.8,6.2,99,0.02,,,0.02,Arduino-ESP8266,2016-07-28 14:01:00,
2016-07-28 10:07:00,84.4,84.1,30.01,South,180,4.2,11.5,99,0.02,,,0.02,Arduino-ESP8266,2016-07-28 14:07:00,
2016-07-28 10:12:00,85.6,85.3,30.01,East,90,2.1,3.1,99,0.02,,,0.02,Arduino-ESP8266,2016-07-28 14:12:00,
2016-07-28 10:17:00,87.5,87.1,30.01,East,90,2.5,3.7,99,0.02,,,0.02,Arduino-ESP8266,2016-07-28 14:17:00,
2016-07-28 10:23:00,88.4,88.0,30.01,ENE,78,2.3,4.7,99,0.02,,,0.02,Arduino-ESP8266,2016-07-28 14:23:00,
2016-07-28 10:28:00,89.1,88.7,30.01,ESE,108,2.6,5.6,99,0.03,,,0.03,Arduino-ESP8266,2016-07-28 14:28:00,
2016-07-28 10:34:00,89.1,88.7,30.01,ESE,108,3.5,5.0,99,0.03,,,0.03,Arduino-ESP8266,2016-07-28 14:34:00,
2016-07-28 10:39:00,89.1,88.7,30.01,East,82,3.4,4.7,99,0.03,,,0.03,Arduino-ESP8266,2016-07-28 14:39:00,
2016-07-28 10:44:00,89.6,89.2,30.00,ESE,116,4.0,5.3,99,0.03,,,0.03,Arduino-ESP8266,2016-07-28 14:44:00,
2016-07-28 10:50:00,89.8,89.4,30.00,ENE,75,2.5,7.5,99,0.03,,,0.03,Arduino-ESP8266,2016-07-28 14:50:00,
2016-07-28 10:57:00,90.5,90.1,30.00,ESE,105,4.6,6.2,99,0.00,,,0.03,Arduino-ESP8266,2016-07-28 14:57:00,
2016-07-28 11:02:00,90.5,90.1,30.00,ESE,112,4.6,8.7,99,0.00,,,0.03,Arduino-ESP8266,2016-07-28 15:02:00,
2016-07-28 11:08:00,90.1,89.7,30.00,East,93,3.9,5.6,99,0.00,,,0.03,Arduino-ESP8266,2016-07-28 15:08:00,
2016-07-28 11:13:00,90.2,89.8,30.00,ESE,120,4.4,9.0,99,0.00,,,0.03,Arduino-ESP8266,2016-07-28 15:13:00,
2016-07-28 11:18:00,90.9,89.4,29.99,East,93,5.1,9.0,95,0.00,,,0.03,Arduino-ESP8266,2016-07-28 15:18:00,
2016-07-28 11:25:00,91.2,89.3,29.99,ESE,112,5.0,7.2,94,0.00,,,0.03,Arduino-ESP8266,2016-07-28 15:25:00,
2016-07-28 11:30:00,91.6,90.5,29.99,ENE,78,3.7,5.9,96,0.00,,,0.03,Arduino-ESP8266,2016-07-28 15:30:00,
2016-07-28 11:36:00,91.7,90.7,29.99,East,82,7.0,10.9,97,0.00,,,0.03,Arduino-ESP8266,2016-07-28 15:36:00,
2016-07-28 11:42:00,90.1,89.8,29.99,East,97,4.9,8.4,99,0.00,,,0.03,Arduino-ESP8266,2016-07-28 15:42:00,
2016-07-28 11:47:00,87.9,87.5,29.99,East,86,3.8,8.4,99,0.00,,,0.03,Arduino-ESP8266,2016-07-28 15:47:00,
2016-07-28 11:53:00,88.6,88.3,29.98,ESE,108,5.2,19.3,99,0.00,,,0.03,Arduino-ESP8266,2016-07-28 15:53:00,
2016-07-28 11:58:00,90.0,89.7,29.98,East,93,3.1,5.0,99,0.00,,,0.03,Arduino-ESP8266,2016-07-28 15:58:00,
2016-07-28 12:03:00,91.2,89.3,29.98,ESE,120,3.1,5.3,94,0.00,,,0.03,Arduino-ESP8266,2016-07-28 16:03:00,
2016-07-28 12:09:00,92.1,88.0,29.98,East,90,3.2,9.0,88,0.00,,,0.03,Arduino-ESP8266,2016-07-28 16:09:00,
2016-07-28 12:16:00,91.6,88.3,29.98,ESE,112,3.1,5.6,90,0.00,,,0.03,Arduino-ESP8266,2016-07-28 16:16:00,
2016-07-28 12:22:00,91.9,87.4,29.98,ESE,108,2.8,6.8,87,0.00,,,0.03,Arduino-ESP8266,2016-07-28 16:22:00,
2016-07-28 12:27:00,92.1,85.1,29.98,ENE,71,3.3,4.7,80,0.00,,,0.03,Arduino-ESP8266,2016-07-28 16:27:00,
2016-07-28 12:32:00,90.8,84.3,29.98,ENE,75,7.4,10.2,81,0.00,,,0.03,Arduino-ESP8266,2016-07-28 16:32:00,
2016-07-28 12:38:00,91.4,86.8,29.98,ESE,123,3.6,7.2,87,0.00,,,0.03,Arduino-ESP8266,2016-07-28 16:38:00,
2016-07-28 12:43:00,90.9,88.0,29.97,ENE,67,8.0,16.8,91,0.00,,,0.03,Arduino-ESP8266,2016-07-28 16:43:00,
2016-07-28 12:49:00,90.4,89.2,29.97,East,86,3.2,5.0,96,0.00,,,0.03,Arduino-ESP8266,2016-07-28 16:49:00,
2016-07-28 12:54:00,90.5,89.9,29.97,NE,48,6.8,10.6,98,0.00,,,0.03,Arduino-ESP8266,2016-07-28 16:54:00,
2016-07-28 12:59:00,90.3,89.9,29.97,ENE,75,5.5,14.3,99,0.00,,,0.03,Arduino-ESP8266,2016-07-28 16:59:00,
2016-07-28 13:05:00,90.1,89.7,29.97,ENE,71,6.5,9.6,99,0.00,,,0.03,Arduino-ESP8266,2016-07-28 17:05:00,
2016-07-28 13:10:00,90.5,90.2,29.97,ENE,75,4.3,7.5,99,0.00,,,0.03,Arduino-ESP8266,2016-07-28 17:10:00,
2016-07-28 13:16:00,89.8,89.4,29.97,East,86,3.8,9.6,99,0.00,,,0.03,Arduino-ESP8266,2016-07-28 17:16:00,
2016-07-28 13:22:00,90.5,90.2,29.96,ENE,60,6.3,8.7,99,0.00,,,0.03,Arduino-ESP8266,2016-07-28 17:22:00,
2016-07-28 13:27:00,88.9,88.6,29.96,East,82,8.3,11.2,99,0.00,,,0.03,Arduino-ESP8266,2016-07-28 17:27:00,
2016-07-28 13:33:00,88.9,87.7,29.96,East,82,5.6,8.1,96,0.00,,,0.03,Arduino-ESP8266,2016-07-28 17:33:00,
2016-07-28 13:40:00,90.0,88.5,29.96,ESE,116,4.2,5.9,95,0.00,,,0.03,Arduino-ESP8266,2016-07-28 17:40:00,
2016-07-28 13:50:00,90.5,89.2,29.96,ESE,123,4.6,7.2,96,0.00,,,0.03,Arduino-ESP8266,2016-07-28 17:50:00,
2016-07-28 13:55:00,90.2,89.7,29.96,ESE,108,5.2,9.6,98,0.00,,,0.03,Arduino-ESP8266,2016-07-28 17:55:00,
2016-07-28 14:01:00,90.3,89.9,29.96,ENE,78,6.1,9.3,98,0.00,,,0.03,Arduino-ESP8266,2016-07-28 18:01:00,
2016-07-28 14:08:00,90.2,88.5,29.96,East,86,5.6,14.9,95,0.00,,,0.03,Arduino-ESP8266,2016-07-28 18:08:00,
2016-07-28 14:13:00,90.0,89.0,29.96,East,86,7.6,9.3,97,0.00,,,0.03,Arduino-ESP8266,2016-07-28 18:13:00,
2016-07-28 14:19:00,89.6,89.2,29.95,East,82,6.9,13.1,99,0.00,,,0.03,Arduino-ESP8266,2016-07-28 18:19:00,
2016-07-28 14:24:00,89.6,89.3,29.95,East,90,3.1,4.7,99,0.00,,,0.03,Arduino-ESP8266,2016-07-28 18:24:00,
2016-07-28 14:29:00,89.5,89.1,29.95,SE,131,6.0,13.1,98,0.00,,,0.03,Arduino-ESP8266,2016-07-28 18:29:00,
2016-07-28 14:35:00,89.8,89.5,29.95,East,93,3.9,6.8,99,0.00,,,0.03,Arduino-ESP8266,2016-07-28 18:35:00,
2016-07-28 14:40:00,89.8,89.6,29.94,East,95,5.3,13.7,99,0.00,,,0.03,Arduino-ESP8266,2016-07-28 18:40:00,
2016-07-28 14:45:00,89.0,88.6,29.95,East,101,3.9,6.5,99,0.00,,,0.03,Arduino-ESP8266,2016-07-28 18:45:00,
2016-07-28 14:51:00,89.4,89.1,29.95,ENE,75,6.6,8.1,99,0.00,,,0.03,Arduino-ESP8266,2016-07-28 18:51:00,
2016-07-28 14:56:00,88.5,88.1,29.94,East,101,6.0,21.4,99,0.00,,,0.03,Arduino-ESP8266,2016-07-28 18:56:00,
2016-07-28 15:01:00,89.1,88.7,29.94,ESE,120,3.3,7.8,99,0.00,,,0.03,Arduino-ESP8266,2016-07-28 19:01:00,
2016-07-28 15:07:00,88.7,88.3,29.94,ENE,75,7.9,14.3,99,0.00,,,0.03,Arduino-ESP8266,2016-07-28 19:07:00,
2016-07-28 15:12:00,89.4,89.1,29.94,East,93,3.9,6.2,99,0.00,,,0.03,Arduino-ESP8266,2016-07-28 19:12:00,
2016-07-28 15:18:00,89.0,88.7,29.94,East,90,6.0,9.0,99,0.00,,,0.03,Arduino-ESP8266,2016-07-28 19:18:00,
2016-07-28 15:23:00,87.9,87.5,29.94,East,98,7.3,19.3,99,0.00,,,0.03,Arduino-ESP8266,2016-07-28 19:23:00,
2016-07-28 15:28:00,87.7,87.3,29.94,ENE,71,7.8,14.0,99,0.00,,,0.03,Arduino-ESP8266,2016-07-28 19:28:00,
2016-07-28 15:34:00,88.1,87.8,29.94,ESE,105,5.1,6.5,99,0.00,,,0.03,Arduino-ESP8266,2016-07-28 19:34:00,